DELTA 1 DEB, 10710

Orbit data source: Space-Track

DELTA 1 DEB, 10710 is space debris in LEO originally from a launch on Thu, 29 Jul 1976 UTC launched from the Air Force Western Test Range (AFWTR). Debris objects in space refer to the collection of defunct objects orbiting the Earth. Examples of debris include non-operational satellites, rocket bodies, and fragments generated from explosions, collisions, or faulty payload assembly.

Loading next visibility...
Identifier
10710, 1976-077AF
Orbit
LEO
Last TLE update
1 day ago
Origin
Manufacturer
Unknown
Mission
Spacecraft
Bus & Motor
Unknown
Mass
Unknown
Launch date (UTC)
1976-07-29 (49 years ago)
Launch vehicle
Unknown
Launch site
Air Force Western Test Range (AFWTR)
Object type
Payload
Rocket body
Debris
Shape & HBR
Unknown
Radar Cross Section
Small (<0.1 m²)

Expand to show TLE details & history

TLE from 1 day ago
0 DELTA 1 DEB
1 10710U 76077AF  25127.97258788  .00000612  00000-0  73736-2 0  9994
2 10710 101.7664 319.6956 0261968  38.1199 123.8010 11.99083952104207
Epoch: 2025-05-07T23:20Z
Definitive object data (Epoch: 2025-05-07T23:20:31.592Z)
Latitude
15.27438°
Longitude
-73.2402°
Altitude
1,808.059 km
Speed
6.928 km/s
True Right ascension
09h 31m 45s
True Declination
15° 11' 54"
Sunlit
Object was in daylight at TLE epoch
Visualization TLE readout
Latitude
2.08963°
Longitude
104.31705°
Altitude
1,509.376 km
Speed
7.188 km/s
Apparent Right ascension
23h 47m 45s
Apparent Declination
-25° 56' 10"
Sunlit
Object is in daylight
Visualization observer readout
Local Sidereal Time
16:39:19
Azimuth
100.914° ESE
Elevation
-28.916°
Doppler factor
1
Orbital elements
Apogee altitude
1,893.742 km
Perigee altitude
1,471.412 km
Semi-major axis
8,060.714 km
Eccentricity
0.0261968
Inclination
101.7664°
RAAN
319.6956°
Arg. of periapsis
38.1199°
True anomaly
126.25012°
Mean anomaly
123.801°
Eccentric anomaly
125.03007°
Mean motion
2.99904 °/min
BSTAR
0.0073736
Orbital period
120.04 mins
Loading maneuver chart data...
Loading SW <> Apogee altitude chart data...
Loading historical data...
Loading historical data...
Loading historical data...
Loading historical data...
Loading historical data...
Loading historical data...
Loading historical data...

DELTA 1 DEB Visibility forecast

Observer location: undefined°, undefined°

Span
Click to sort rows by Start time (UTC) header in descending order
Start Az.
Max El. time (UTC)
Max El. Az.
Max El.
End time (UTC)
End Az.
11 mins2025-05-09 10:40:09.447Z96.806° ESE2025-05-09 10:46:09.447Z47.902° ENE20.917°2025-05-09 10:51:09.447Z8.839° NNE
14 mins2025-05-09 12:36:09.447Z165.708° S2025-05-09 12:42:09.447Z211.424° SW44.509°2025-05-09 12:50:09.447Z340.616° N
6 mins2025-05-09 14:39:09.447Z252.068° W2025-05-09 14:42:09.447Z275.032° WNW13.227°2025-05-09 14:45:09.447Z297.064° NW
17 mins2025-05-10 01:08:09.447Z27.218° NE2025-05-10 01:16:09.447Z104.281° ESE40.552°2025-05-10 01:25:09.447Z180.324° SSW
14 mins2025-05-10 03:07:09.447Z356.076° N2025-05-10 03:13:09.447Z304.699° NW30.879°2025-05-10 03:21:09.447Z242.28° WSW
|